Location: Middlebury College Observatory
(44.0123°N, 73.1804°W)
Time: 04:19:41
(UTC-05:00)

OTV 5 (USA 277) - Visible Passes

Search period start: 25 November 2017 00:00
Search period end: 05 December 2017 00:00
Orbit: 404 x 417 km, 43.0° (Epoch: 07 September)

Date Brightness Start Highest point End Pass type
(mag) Time Alt. Az. Time Alt. Az. Time Alt. Az.
01 Dec ? 18:44:26 10° SSW 18:45:03 14° SSW 18:45:03 14° SSW visible
02 Dec ? 17:53:54 10° SSW 17:56:23 19° SSE 17:56:31 19° SSE visible
03 Dec ? 17:03:44 10° S 17:05:29 14° SSE 17:07:15 10° ESE visible
03 Dec ? 18:39:03 10° WSW 18:40:41 25° SW 18:40:41 25° SW visible
04 Dec ? 17:48:11 10° SW 17:51:18 35° SSE 17:52:03 31° SE visible
